Regional Weather Roundup
Issued by NWS Wakefield, VA

Home | Current Version | Previous Version | Text Only | Print | Product List | Glossary On
Versions: 1 2 3 4 5 6 7 8 9 10 11 12 13 14 15 16 17 18 19 20 21 22 23 24 25 26 27
000
ASUS41 KAKQ 261015
RWRAKQ

REGIONAL WEATHER ROUNDUP
NATIONAL WEATHER SERVICE WAKEFIELD VA
600 AM EDT SUN MAR 26 2017

Note: "fair" indicates few or no clouds below 12,000 feet with no
significant weather and/or obstructions to visibility. * = Denotes
station may not report precipitation (e.g., rain,snow,etc.),
thunder or fog.

VAZ042-051-052>054-056-261100-
NORTHERN VIRGINIA

CITY           SKY/WX    TMP DP  RH WIND       PRES   REMARKS
WASH NATIONAL  CLOUDY    50  44  80 E15       30.28R
DULLES         CLOUDY    48  41  76 E6        30.27R
FORT BELVOIR   CLOUDY    49  42  75 VRB3      30.27R
QUANTICO       CLOUDY    50  45  83 E12       30.27R
FREDERICKSBRG* MOCLDY    50  46  84 NE9       30.24R
STAFFORD*      MOCLDY    49  45  84 NE7       30.28S
WARRENTON      CLOUDY    51  41  69 NE7       30.25R
CULPEPER*      PTCLDY    51  45  78 NE3       30.25R
MANASSAS*      MOCLDY    49  42  77 NE8       30.27R
LEESBURG*      CLOUDY    50  45  81 E7        30.29R
WINCHESTER     CLOUDY    46  41  81 NE3       30.24R
FRONT ROYAL*   PTSUNNY   50  43  76 E13G18    30.22R
LURAY*         SUNNY     54  52  94 N9        30.18R
$$

VAZ048-049-060>072-079>083-261100-
CENTRAL AND SOUTH CENTRAL VIRGINIA

CITY           SKY/WX    TMP DP  RH WIND       PRES   REMARKS
RICHMOND       PTCLDY    56  51  84 SE5       30.21R
CHESTERFIELD*  FAIR     N/A N/A N/A CALM      30.22R
PETERSBURG*    CLOUDY    49  47  93 CALM      30.21S
HANOVER        PTCLDY    50  46  86 CALM      30.22R
TAPPAHANNOCK*  PTCLDY    50  41  71 NE6       30.25R
QUINTON*       FAIR      51  51 100 S5        30.21R
CHARLOTTSVILLE CLEAR     55  49  80 N6        30.19R
GORDONSVILLE*  SUNNY     46  45  98 NE6       30.19R
ORANGE*        CLEAR     50  46  87 N8        30.22R
LOUISA*        CLEAR     54  52  94 CALM      30.19R
BUMPASS*       FAIR      52  50  92 CALM      30.20R
FARMVILLE*     MOCLDY    55  52  90 CALM      30.19R
CREWE*         FAIR      53  53 100 CALM      30.20R
FORT PICKETT*  FAIR      50  47  88 S6        30.21R
CHASE CITY*    FAIR      52  50  93 SE3       30.21R
CLARKSVILLE*   FAIR      54  54 100 CALM      30.20R
SOUTH HILL*    MOCLDY    50  50  99 S3        30.27R
LAWRENCEVILLE* FAIR      55  51  88 S6        30.21R
EMPORIA*       CLOUDY    50  48  93 CALM      30.24R
$$

VAZ088>098-261100-
SOUTHEAST VIRGINIA

CITY           SKY/WX    TMP DP  RH WIND       PRES   REMARKS
NORFOLK        CLEAR     54  51  90 SW8       30.23R
VIRGINIA BEACH PTCLDY    53  49  86 SW5       30.23R
NORFOLK NAVAL  PTCLDY    59  52  77 S6        30.24R
WEST POINT*    CLEAR     54  51  87 N5        30.24R
SALUDA*        FAIR      53  50  92 NE3       30.23R
NEWPORT NEWS   PTCLDY    55  50  83 S5        30.23R
LANGLEY AFB    CLEAR     57  53  87 S7        30.22R
FORT EUSTIS    PTCLDY    54  50  86 S3        30.20R
WILLIAMSBURG*  CLEAR     55  52  88 CALM      30.23R
HR EXEC AP*    FAIR      50  46  87 CALM      30.22S
FRANKLIN*      MOCLDY    55  52  89 S3        30.24R
US460-WAKEFLD  PTCLDY    56  52  86 CALM      30.22R
$$

VAZ020-022-025-037-045-261100-
WEST CENTRAL AND SOUTHWEST VIRGINIA

CITY           SKY/WX    TMP DP  RH WIND       PRES   REMARKS
STAUNTON*      CLEAR     43  42  96 CALM      30.19R
WAYNESBORO*    SUNNY     53  48  85 CALM      30.17S
HOT SPRINGS VA PTCLDY    50  43  76 CALM      30.19S
LYNCHBURG      MOCLDY    52  48  86 S3        30.20R
DANVILLE       PTCLDY    52  51  97 CALM      30.19R
SOUTH BOSTON*  FAIR      52  51  96 CALM      30.20R
MARTINSVILLE   MOCLDY    45  43  93 CALM      30.20S
ROANOKE        MOCLDY    56  48  74 E3        30.18R
BLACKSBURG     CLOUDY    54  49  83 SE6       30.19F
DUBLIN*        CLOUDY    55  49  79 CALM      30.17S
MARION*        CLOUDY    58  49  72 SE3       30.16R
HILLSVILLE*    CLOUDY    53  50  90 CALM      30.15R
RICHLANDS*     FAIR      57  47  69 CALM      30.09R
WISE*          CLOUDY    59  45  58 S13G21    30.07S
ABINGDON*      PTCLDY    60  47  62 S6        30.08S
$$

MDZ021>025-VAZ099-100-261100-
SOUTHERN MARYLAND AND THE DELMARVA PENINSULA

CITY           SKY/WX    TMP DP  RH WIND       PRES   REMARKS
PATUXENT RIVER CLOUDY    47  47 100 E13       30.27R
BAY BRIDGE APT CLOUDY    46  41  81 E10G17    30.31R
LEONARDTOWN    CLOUDY    46  43  87 NE8       30.28R
DOVER          CLOUDY    45  45 100 E14       30.32R
GEORGETOWN     CLOUDY    44  41  89 E14G24    30.32R
EASTON         CLOUDY    46  43  87 E13       30.33R
CAMBRIDGE      CLOUDY    46  45  93 E10       30.28S
SALISBURY      CLOUDY    47  46  97 NE16      30.29R
OCEAN CITY     CLOUDY    45  43  93 NE13G22   30.30R FOG
WALLOPS ISLAND CLOUDY    48  48 100 NE16G24   30.28R FOG
ACCOMACK*      CLOUDY    49  47  90 E6        30.25S
$$

NCZ012>017-030>032-261100-
NORTH CENTRAL AND EASTERN NORTH CAROLINA

CITY           SKY/WX    TMP DP  RH WIND       PRES   REMARKS
ROANOKE RAPIDS FAIR      52  52 100 CALM      30.22S
RALEIGH        PTCLDY    54  51  90 CALM      30.21R
ELIZABETH CITY MOCLDY    54  52  93 S3        30.25R
AHOSKIE*         N/A     51  49  96 CALM      30.24R
EDENTON*       MOCLDY    54  51  90 CALM      30.25S
CURRITUCK*     MOCLDY    55  55 100 CALM      30.25R
KILL DEVIL HLS NOT AVBL
MANTEO         MOCLDY    56  54  93 CALM      30.25R
CAPE HATTERAS  CLOUDY    61  56  83 SW3       30.25R
TARBORO*       NOT AVBL
GOLDSBORO      CLEAR     52  52 100 E5        30.20S
WASHINGTON     PTCLDY    51  51  97 CALM      30.24S
GREENVILLE     CLOUDY    52  52 100 CALM      30.24S
NEW BERN       MOCLDY    49  49 100 CALM      30.25R
WILMINGTON     PTCLDY    53  53 100 CALM      30.21S
$$

VAZ048-261100-
ELSEWHERE

CITY           SKY/WX    TMP DP  RH WIND       PRES   REMARKS
HARRISBURG PA  CLOUDY    45  40  82 E12       30.33R
BALTIMORE      MOCLDY    46  41  82 E13       30.30R
ANNAPOLIS      CLOUDY    49  43  80 E12       30.30R
ANDREWS AFB    CLOUDY    47  42  83 E14       30.26S
PHILADELPHIA   CLOUDY    43  37  79 E12       30.37R
HENDERSON NC   CLEAR     50  47  91 S5        30.22R
GREENSBORO     MOCLDY    55  53  93 S5        30.17S
ROCKY MOUNT    PTCLDY    49  48  97 CALM      30.22R
$$

VAZ100-261100-
MARINE

STATION/POSITION TIME  TEMP    WIND        PRES    WAVE   SWELL
                       AIR SEA DIR/SP/G            HT/PER HT/PER
                 (UTC) (F)     (DEG/KT/KT) (MB)    (FT/S) (FT/S)
CAPE MAY NJ      0948   43 45   70/  9/ 16 1026.0R
LEWES DE         0948      47   80/ 20/ 23 1026.3S
OCEAN-CITY-INLET 0948   44 44   30/  9/ 16 1026.4R
WACHAPREAGUE VA  0942   49 54   40/ 13/ 16 1024.2R
THOMAS POINT MD  1000   46 45   80/ 18/ 19   N/A
GOOSES REEF MD   0950   47     110/ 12/ 14 1025.8R
COVE POINT MD    0942   46      90/ 10/ 16 1025.6R
SOLOMONS ISLAND  0942   48 47   70/  9/ 12   N/A
BISHOPS HEAD MD  0948   47 50   60/ 14/ 18 1024.8R
PINEY POINT MD   0948           90/  7/  9   N/A
POTOMAC MD       0950   47      50/ 12/ 14 1023.8R
CAMBRIDGE MD     0948   47 48   70/ 12/ 15 1024.7R
LEWISETTA VA     0942   48 50   80/  7/ 10 1024.3R
RAPPAHANNOCK LGT 0948          110/ 10/ 11 1024.5R
STINGRAY PT      0950   51     130/  6/  8 1023.5R
YORK RVR RNG VA  0942   57     200/  5/  6 1022.8R
YORKTOWN VA      0942   59 50  210/  6/  8 1022.9R
JAMESTOWN VA     0950   57     120/  4/  6   N/A
DOMINION TERM VA 0942   57     170/  4/  4 1023.6R
KIPTOPEKE VA     0948      49  160/  4/  5   N/A
CHES BAY BRIDGE  0942   59 48  230/  7/  8 1023.6R
CAPE HENRY VA    0942   59     220/  5/  8   N/A
WILLOUBY STN VA  0942   60     200/  8/  9 1024.5R
S CRANEY ISL VA  0942   56     190/  5/  6 1023.3R
CAPE HENRY BUOY  0942      49                N/A     2/ 6
CAPE CHARLES BUO 0951      47                N/A     2/ 7
OFFSHORE WE BUOY 0951      49                N/A     2/ 5
64NM E OF VA BCH 0950   53 49  250/  4/  6 1024.1R   2/ 5   2/ 5
DUCK PIER NC     0948   58 46  240/  6/  6 1023.8R
44100 DUCK FRF   0935      49                N/A     2/ 5
44056 DUCK FRF   0930      49                N/A     2/20
OREGON INLET NC  0942   56 58  290/  3/  4 1024.1R
HATTERAS NC      0948   62 58   CALM  /  2 1023.9R
DIAMOND SHLS NC  0950   68 75  180/ 12/ 16 1024.0R   3/ 5   2/ 8
CAPE LOOKOUT NC  1000   66     190/  4/  4 1023.6R
$$




USA.gov is the U.S. government's official web portal to all federal, state and local government web resources and services.